Date,TemperatureHighF,TemperatureAvgF,TemperatureLowF,DewpointHighF,DewpointAvgF,DewpointLowF,HumidityHigh,HumidityAvg,HumidityLow,PressureMaxIn,PressureMinIn,WindSpeedMaxMPH,WindSpeedAvgMPH,GustSpeedMaxMPH,PrecipitationSumIn
2013-4-1,74,62,46,28,24,18,40,25,13,29.81,29.46,9,3,20,0.00
2013-4-2,72,57,43,29,22,13,42,27,11,29.79,29.63,10,3,22,0.00
2013-4-3,72,58,44,26,23,17,38,26,15,29.89,29.78,9,3,13,0.00
2013-4-4,76,62,47,28,23,18,42,25,13,29.94,29.78,8,2,16,0.00
2013-4-5,78,65,49,29,24,17,32,21,14,29.82,29.25,7,3,18,0.00
2013-4-6,74,63,55,34,30,24,40,29,19,29.76,29.08,8,3,18,0.00
2013-4-7,76,62,48,32,28,24,51,29,18,29.70,29.25,11,3,21,0.00
2013-4-8,68,58,48,36,32,27,51,38,22,29.58,29.22,21,8,56,0.00
2013-4-9,51,43,38,35,30,21,82,60,32,29.82,29.30,15,4,25,0.06
2013-4-10,60,48,39,30,23,19,68,38,25,29.89,29.77,9,5,19,0.00
2013-4-11,71,54,36,26,22,18,54,32,14,29.89,29.65,7,2,11,0.00
2013-4-12,69,57,43,26,23,20,40,28,19,29.69,29.57,9,2,18,0.00
2013-4-13,74,61,48,29,25,22,37,26,17,29.69,29.55,7,3,14,0.00
2013-4-14,71,60,52,36,30,23,55,33,18,29.62,29.41,28,6,28,0.00
2013-4-15,72,59,49,35,32,28,55,38,20,29.66,29.53,26,6,26,0.00
2013-4-16,73,60,51,42,29,21,62,33,17,29.67,29.30,13,6,23,0.00
2013-4-17,61,52,43,42,27,11,62,39,23,29.83,29.54,14,7,33,0.00
2013-4-18,61,48,35,14,10,3,35,22,12,30.03,29.82,7,3,15,0.00
2013-4-19,68,52,34,14,9,4,32,19,11,30.08,29.86,9,2,15,0.00
2013-4-20,75,60,44,20,12,4,21,15,9,29.88,29.73,10,5,18,0.00
2013-4-21,80,64,50,23,18,15,27,17,11,29.88,29.55,8,3,14,0.00
2013-4-22,81,67,51,25,20,15,27,17,11,29.79,29.03,10,3,18,0.00
2013-4-23,78,66,58,28,23,20,25,20,14,29.65,28.69,10,5,21,0.00
2013-4-24,78,66,49,30,24,18,35,21,13,29.75,28.59,9,3,17,0.00
2013-4-25,74,64,54,28,23,19,30,21,13,29.70,28.42,14,5,33,0.00
2013-4-26,77,62,42,27,20,14,43,22,10,29.94,28.81,8,3,14,0.00
2013-4-27,80,67,52,28,24,17,33,20,12,29.88,28.83,8,3,15,0.00
2013-4-28,81,68,52,25,21,14,31,18,11,29.72,28.66,8,2,13,0.00
2013-4-29,84,72,57,25,20,14,20,14,10,29.62,28.66,9,3,16,0.00
2013-4-30,82,70,55,28,24,19,27,18,12,29.58,28.67,12,4,28,0.00